Hourly Weather Buenos Aires

Today, 2 October, Friday

Time Temperature Precipitation Wind Pressure Humidity
00:00 +12°C° 0 mm 8 mps 760 mmHg 58%
01:00 +11°C° 0 mm 8 mps 760 mmHg 55%
02:00 +10°C° 0 mm 8 mps 760 mmHg 53%
03:00 +9°C° 0 mm 8 mps 761 mmHg 54%
04:00 +9°C° 0 mm 8 mps 762 mmHg 54%
05:00 +8°C° 0 mm 7 mps 762 mmHg 54%
06:00 +9°C° 0 mm 7 mps 763 mmHg 53%
07:00 +10°C° 0 mm 7 mps 764 mmHg 52%
08:00 +10°C° 0 mm 7 mps 764 mmHg 50%
09:00 +12°C° 0 mm 8 mps 765 mmHg 48%
10:00 +13°C° 0 mm 8 mps 765 mmHg 46%
11:00 +15°C° 0 mm 8 mps 765 mmHg 44%
12:00 +16°C° 0 mm 8 mps 766 mmHg 43%
13:00 +16°C° 0 mm 8 mps 766 mmHg 42%
14:00 +16°C° 0 mm 9 mps 766 mmHg 41%
15:00 +15°C° 0 mm 9 mps 766 mmHg 43%
16:00 +13°C° 0 mm 9 mps 766 mmHg 45%
17:00 +12°C° 0 mm 9 mps 767 mmHg 48%
18:00 +11°C° 0 mm 9 mps 768 mmHg 50%
19:00 +9°C° 0 mm 10 mps 769 mmHg 53%
20:00 +8°C° 0 mm 10 mps 769 mmHg 55%
21:00 +8°C° 0 mm 9 mps 770 mmHg 56%
22:00 +7°C° 0 mm 8 mps 771 mmHg 57%
23:00 +7°C° 0 mm 8 mps 771 mmHg 57%

Tomorrow, 3 October, Saturday

Time Temperature Precipitation Wind Pressure Humidity
00:00 +6°C° 0 mm 8 mps 771 mmHg 58%
01:00 +6°C° 0 mm 7 mps 771 mmHg 59%
02:00 +6°C° 0 mm 7 mps 771 mmHg 60%
03:00 +5°C° 0 mm 7 mps 771 mmHg 61%
04:00 +5°C° 0 mm 7 mps 771 mmHg 62%
05:00 +5°C° 0 mm 7 mps 771 mmHg 64%
06:00 +5°C° 0 mm 7 mps 772 mmHg 62%
07:00 +6°C° 0 mm 7 mps 772 mmHg 61%
08:00 +8°C° 0 mm 7 mps 772 mmHg 59%
09:00 +10°C° 0 mm 7 mps 772 mmHg 55%
10:00 +11°C° 0 mm 8 mps 772 mmHg 51%
11:00 +12°C° 0 mm 8 mps 772 mmHg 46%
12:00 +13°C° 0 mm 8 mps 772 mmHg 45%
13:00 +13°C° 0 mm 8 mps 771 mmHg 45%
14:00 +13°C° 0 mm 8 mps 771 mmHg 44%
15:00 +13°C° 0 mm 8 mps 770 mmHg 46%
16:00 +12°C° 0 mm 8 mps 770 mmHg 49%
17:00 +11°C° 0 mm 8 mps 770 mmHg 51%
18:00 +10°C° 0 mm 8 mps 770 mmHg 56%
19:00 +9°C° 0 mm 8 mps 771 mmHg 60%
20:00 +9°C° 0 mm 8 mps 771 mmHg 64%
21:00 +9°C° 0 mm 8 mps 771 mmHg 65%
22:00 +9°C° 0 mm 8 mps 771 mmHg 67%
23:00 +9°C° 0 mm 7 mps 771 mmHg 68%

Day after tomorrow, 4 October, Sunday

Time Temperature Precipitation Wind Pressure Humidity
00:00 +9°C° 0 mm 7 mps 770 mmHg 68%
01:00 +9°C° 0 mm 7 mps 770 mmHg 68%
02:00 +9°C° 0 mm 6 mps 770 mmHg 68%
03:00 +9°C° 0 mm 6 mps 769 mmHg 68%
04:00 +9°C° 0 mm 6 mps 769 mmHg 68%
05:00 +10°C° 0 mm 7 mps 769 mmHg 68%
06:00 +10°C° 0 mm 7 mps 769 mmHg 65%
07:00 +11°C° 0 mm 7 mps 769 mmHg 63%
08:00 +12°C° 0 mm 8 mps 768 mmHg 60%
09:00 +13°C° 0 mm 8 mps 768 mmHg 56%
10:00 +15°C° 0 mm 7 mps 767 mmHg 53%
11:00 +16°C° 0 mm 7 mps 766 mmHg 49%
12:00 +16°C° 0 mm 7 mps 766 mmHg 49%
13:00 +17°C° 0 mm 7 mps 765 mmHg 49%
14:00 +17°C° 0 mm 7 mps 764 mmHg 49%
15:00 +17°C° 0 mm 7 mps 764 mmHg 53%
16:00 +16°C° 0 mm 7 mps 763 mmHg 57%
17:00 +16°C° 0 mm 6 mps 763 mmHg 61%
18:00 +15°C° 0.1 mm 6 mps 763 mmHg 63%
19:00 +15°C° 0.1 mm 6 mps 763 mmHg 65%
20:00 +15°C° 0.1 mm 6 mps 763 mmHg 67%
21:00 +15°C° 0.3 mm 6 mps 763 mmHg 70%
22:00 +14°C° 0.3 mm 6 mps 762 mmHg 73%
23:00 +14°C° 0.3 mm 6 mps 762 mmHg 75%

5 October, Monday

Time Temperature Precipitation Wind Pressure Humidity
00:00 +13°C° 0.6 mm 5 mps 762 mmHg 77%
01:00 +13°C° 0.6 mm 5 mps 761 mmHg 80%
02:00 +13°C° 0.6 mm 4 mps 761 mmHg 82%
03:00 +13°C° 0.3 mm 3 mps 761 mmHg 83%
04:00 +14°C° 0.3 mm 2 mps 760 mmHg 84%
05:00 +13°C° 0.3 mm 1 mps 760 mmHg 85%
06:00 +13°C° 0.4 mm 1 mps 760 mmHg 86%
07:00 +13°C° 0.4 mm 2 mps 760 mmHg 87%
08:00 +13°C° 0.4 mm 2 mps 760 mmHg 87%
09:00 +14°C° 0.1 mm 2 mps 760 mmHg 83%
10:00 +14°C° 0.1 mm 3 mps 760 mmHg 79%
11:00 +16°C° 0.1 mm 3 mps 760 mmHg 75%
12:00 +16°C° 0.1 mm 3 mps 760 mmHg 71%
13:00 +17°C° 0.1 mm 3 mps 760 mmHg 67%
14:00 +18°C° 0.1 mm 3 mps 759 mmHg 63%
15:00 +18°C° 0.1 mm 4 mps 759 mmHg 66%
16:00 +17°C° 0.1 mm 4 mps 759 mmHg 70%
17:00 +16°C° 0.1 mm 5 mps 759 mmHg 73%
18:00 +15°C° 0 mm 5 mps 759 mmHg 74%
19:00 +14°C° 0 mm 5 mps 759 mmHg 75%
20:00 +14°C° 0 mm 5 mps 760 mmHg 77%
21:00 +13°C° 0 mm 4 mps 760 mmHg 79%
22:00 +13°C° 0 mm 4 mps 760 mmHg 81%
23:00 +13°C° 0 mm 3 mps 760 mmHg 82%

6 October, Tuesday

Time Temperature Precipitation Wind Pressure Humidity
00:00 +13°C° 0 mm 3 mps 759 mmHg 84%
01:00 +13°C° 0 mm 3 mps 759 mmHg 85%
02:00 +12°C° 0 mm 3 mps 759 mmHg 87%
03:00 +12°C° 0 mm 3 mps 759 mmHg 88%
04:00 +13°C° 0 mm 2 mps 759 mmHg 89%
05:00 +13°C° 0 mm 2 mps 759 mmHg 90%
06:00 +14°C° 0 mm 2 mps 759 mmHg 85%
07:00 +15°C° 0 mm 2 mps 759 mmHg 80%
08:00 +16°C° 0 mm 3 mps 760 mmHg 75%
09:00 +17°C° 0 mm 3 mps 759 mmHg 70%
10:00 +18°C° 0 mm 3 mps 759 mmHg 65%
11:00 +19°C° 0 mm 3 mps 759 mmHg 61%
12:00 +20°C° 0 mm 3 mps 759 mmHg 57%
13:00 +21°C° 0 mm 3 mps 758 mmHg 53%
14:00 +22°C° 0 mm 4 mps 758 mmHg 49%
15:00 +21°C° 0 mm 4 mps 758 mmHg 52%
16:00 +21°C° 0 mm 4 mps 758 mmHg 56%
17:00 +20°C° 0 mm 4 mps 758 mmHg 59%
18:00 +19°C° 0 mm 4 mps 758 mmHg 65%
19:00 +18°C° 0 mm 4 mps 759 mmHg 71%
20:00 +16°C° 0 mm 5 mps 759 mmHg 78%
21:00 +17°C° 0 mm 4 mps 760 mmHg 79%
22:00 +15°C° 0 mm 4 mps 760 mmHg 80%
23:00 +15°C° 0 mm 4 mps 760 mmHg 80%

7 October, Wednesday

Time Temperature Precipitation Wind Pressure Humidity
00:00 +16°C° 0 mm 3 mps 760 mmHg 82%
01:00 +14°C° 0 mm 3 mps 760 mmHg 84%
02:00 +14°C° 0 mm 3 mps 760 mmHg 86%
03:00 +14°C° 0 mm 3 mps 760 mmHg 86%
04:00 +15°C° 0 mm 2 mps 760 mmHg 87%
05:00 +14°C° 0 mm 2 mps 760 mmHg 87%
06:00 +16°C° 0 mm 2 mps 760 mmHg 82%
07:00 +17°C° 0 mm 3 mps 760 mmHg 77%
08:00 +18°C° 0 mm 3 mps 760 mmHg 72%
09:00 +20°C° 0 mm 3 mps 759 mmHg 64%
10:00 +21°C° 0 mm 4 mps 759 mmHg 57%
11:00 +22°C° 0 mm 4 mps 759 mmHg 49%
12:00 +23°C° 0 mm 4 mps 759 mmHg 48%
13:00 +23°C° 0 mm 4 mps 759 mmHg 47%
14:00 +23°C° 0 mm 5 mps 758 mmHg 46%
15:00 +23°C° 0 mm 5 mps 758 mmHg 49%
16:00 +22°C° 0 mm 5 mps 758 mmHg 51%
17:00 +21°C° 0 mm 5 mps 758 mmHg 53%
18:00 +20°C° 0 mm 5 mps 758 mmHg 56%
19:00 +19°C° 0 mm 5 mps 758 mmHg 58%
20:00 +17°C° 0 mm 6 mps 759 mmHg 61%
21:00 +17°C° 0 mm 5 mps 759 mmHg 62%
22:00 +16°C° 0 mm 5 mps 759 mmHg 64%
23:00 +16°C° 0 mm 5 mps 760 mmHg 65%
Show more

We Need Your Consent

Meteoprog and our Service Providers may store and access personal data such as cookies, device identifiers or other similar technologies on your device and process such data to personalise content and ads, as well as provide social media features and to analyse the traffic.

  • Store and/or access information on your device

    Cookies, device identifiers or other information can be stored or accessed on your device for the purposes indicated above.

  • Personalised ads and content, ad and content measurement, audience insights, and products development

    Ads and content can be personalised based on a profile. More data can be added to better personalise ads and content. Ad and content performance can be measured. Insights about the audience who saw the ads and content can be derived. Such data can be used to develop or improve user’s experience, systems and software.

By clicking ‘I Agree’ you will allow the use of indicated cookies, device identifiers, web beacons or other similar technologies. Your settings can be changed in the browser on your device.

For certain purposes, legitimate interests may be relied on, rather than consent. You can read more about this in our Privacy and Cookie Policy.